| time (UTC) | temp F | wind direction | speed MPH | gust MPH | rain 1hr in | rain 24hr in | rain mn in | humidity % | barometer mb |
| 20260901070107 | 75 | 0 | 0.0 | 0.0 | 0.00 | 0.00 | 0.00 | 91 | 1013.1 |
| 20260901065546 | 75 | 0 | 0.0 | 0.0 | 0.00 | 0.00 | 0.00 | 91 | 1013.0 |
| 20260901065046 | 75 | 0 | 0.0 | 0.0 | 0.00 | 0.00 | 0.00 | 91 | 1013.1 |
| 20260901064602 | 75 | 0 | 0.0 | 0.0 | 0.00 | 0.00 | 0.00 | 91 | 1013.1 |
| 20260901064048 | 75 | 0 | 0.0 | 0.0 | 0.00 | 0.00 | 0.00 | 91 | 1013.0 |
| 20260901063545 | 75 | 0 | 0.0 | 0.0 | 0.00 | 0.00 | 0.00 | 91 | 1013.2 |
| 20260901063110 | 75 | 0 | 0.0 | 0.0 | 0.00 | 0.00 | 0.00 | 91 | 1013.1 |
| 20260901062545 | 75 | 0 | 0.0 | 0.0 | 0.00 | 0.00 | 0.00 | 91 | 1013.2 |
| 20260901062045 | 75 | 0 | 0.0 | 0.0 | 0.00 | 0.00 | 0.00 | 91 | 1013.3 |
| 20260901061624 | 75 | 0 | 0.0 | 0.0 | 0.00 | 0.00 | 0.00 | 91 | 1013.2 |
| 20260901061046 | 75 | 0 | 0.0 | 0.0 | 0.00 | 0.00 | 0.00 | 92 | 1013.1 |
| 20260901060545 | 75 | 0 | 0.0 | 0.0 | 0.00 | 0.00 | 0.00 | 92 | 1013.2 |
| 20260901060107 | 75 | 0 | 0.0 | 0.0 | 0.00 | 0.00 | 0.00 | 92 | 1013.3 |
| 20260901055546 | 75 | 0 | 0.0 | 0.0 | 0.00 | 0.00 | 0.00 | 92 | 1013.3 |
| 20260901055045 | 75 | 0 | 0.0 | 0.0 | 0.00 | 0.00 | 0.00 | 92 | 1013.4 |
| 20260901054559 | 75 | 0 | 0.0 | 0.0 | 0.00 | 0.00 | 0.00 | 91 | 1013.3 |
| 20260901054046 | 75 | 0 | 0.0 | 0.0 | 0.00 | 0.00 | 0.00 | 91 | 1013.3 |
| 20260901053547 | 75 | 0 | 0.0 | 0.0 | 0.00 | 0.00 | 0.00 | 91 | 1013.3 |
| 20260901053109 | 75 | 0 | 0.0 | 0.0 | 0.00 | 0.00 | 0.00 | 91 | 1013.4 |
| 20260901052546 | 75 | 0 | 0.0 | 0.0 | 0.00 | 0.00 | 0.00 | 91 | 1013.3 |
| 20260901052043 | 75 | 0 | 0.0 | 0.0 | 0.00 | 0.00 | 0.00 | 91 | 1013.3 |
| 20260901051601 | 75 | 0 | 0.0 | 0.0 | 0.00 | 0.00 | 0.00 | 91 | 1013.3 |
| 20260901051043 | 75 | 0 | 0.0 | 0.0 | 0.00 | 0.00 | 0.00 | 91 | 1013.4 |
| 20260901050546 | 75 | 0 | 0.0 | 0.0 | 0.00 | 0.00 | 0.00 | 91 | 1013.4 |
| 20260901050100 | 75 | 0 | 0.0 | 0.0 | 0.00 | 0.00 | 0.00 | 90 | 1013.4 |
| 20260901045618 | 75 | 0 | 0.0 | 0.0 | 0.00 | 0.00 | 0.00 | 90 | 1013.4 |
| 20260901045044 | 75 | 0 | 0.0 | 0.0 | 0.00 | 0.00 | 0.00 | 90 | 1013.4 |
| 20260901044606 | 75 | 0 | 0.0 | 0.0 | 0.00 | 0.00 | 0.00 | 90 | 1013.4 |
| 20260901044046 | 75 | 0 | 0.0 | 0.0 | 0.00 | 0.00 | 0.00 | 90 | 1013.3 |
| 20260901043546 | 75 | 0 | 0.0 | 0.0 | 0.00 | 0.00 | 0.00 | 90 | 1013.4 |
| 20260901043103 | 76 | 0 | 0.0 | 0.0 | 0.00 | 0.00 | 0.00 | 90 | 1013.4 |
| 20260901042543 | 76 | 0 | 0.0 | 0.0 | 0.00 | 0.00 | 0.00 | 89 | 1013.4 |
| 20260901042047 | 76 | 0 | 0.0 | 0.0 | 0.00 | 0.00 | 0.00 | 89 | 1013.3 |
| 20260901041608 | 76 | 0 | 0.0 | 0.0 | 0.00 | 0.00 | 0.00 | 89 | 1013.4 |
| 20260901041045 | 76 | 0 | 0.0 | 0.0 | 0.00 | 0.00 | 0.00 | 89 | 1013.4 |
| 20260901040547 | 76 | 0 | 0.0 | 0.0 | 0.00 | 0.00 | 0.00 | 88 | 1013.5 |
| 20260901040108 | 76 | 0 | 0.0 | 0.0 | 0.00 | 0.00 | 0.00 | 88 | 1013.5 |
| 20260901035547 | 76 | 0 | 0.0 | 0.0 | 0.00 | 0.00 | 0.00 | 88 | 1013.6 |
| 20260901035042 | 76 | 0 | 0.0 | 0.0 | 0.00 | 0.00 | 0.00 | 87 | 1013.5 |
| 20260901034602 | 76 | 0 | 0.0 | 0.0 | 0.00 | 0.00 | 0.00 | 87 | 1013.6 |
| 20260901034046 | 76 | 0 | 0.0 | 0.0 | 0.00 | 0.00 | 0.00 | 87 | 1013.6 |
| 20260901033546 | 77 | 0 | 0.0 | 0.0 | 0.00 | 0.00 | 0.00 | 87 | 1013.7 |
| 20260901033110 | 77 | 0 | 0.0 | 0.0 | 0.00 | 0.00 | 0.00 | 86 | 1013.7 |
| 20260901032548 | 77 | 0 | 0.0 | 0.0 | 0.00 | 0.00 | 0.00 | 86 | 1013.7 |
| 20260901032043 | 77 | 0 | 0.0 | 0.0 | 0.00 | 0.00 | 0.00 | 86 | 1013.8 |
| 20260901031613 | 77 | 0 | 0.0 | 0.0 | 0.00 | 0.00 | 0.00 | 86 | 1013.7 |
| 20260901031043 | 77 | 0 | 0.0 | 0.0 | 0.00 | 0.00 | 0.00 | 85 | 1013.7 |
| 20260901030547 | 78 | 0 | 0.0 | 0.0 | 0.00 | 0.00 | 0.00 | 86 | 1013.6 |
| 20260901030103 | 78 | 0 | 0.0 | 0.0 | 0.00 | 0.00 | 0.00 | 86 | 1013.7 |
| 20260901025548 | 78 | 0 | 0.0 | 0.0 | 0.00 | 0.00 | 0.00 | 86 | 1013.8 |
| 20260901025044 | 78 | 0 | 0.0 | 0.0 | 0.00 | 0.00 | 0.00 | 86 | 1013.7 |
| 20260901024607 | 78 | 0 | 0.0 | 0.0 | 0.00 | 0.00 | 0.00 | 86 | 1013.8 |
| 20260901024045 | 78 | 0 | 0.0 | 0.0 | 0.00 | 0.00 | 0.00 | 86 | 1013.8 |
| 20260901023543 | 78 | 0 | 0.0 | 0.0 | 0.00 | 0.00 | 0.00 | 86 | 1013.8 |
| 20260901023107 | 78 | 0 | 0.0 | 0.0 | 0.00 | 0.00 | 0.00 | 87 | 1013.7 |
| 20260901022543 | 78 | 0 | 0.0 | 0.0 | 0.00 | 0.00 | 0.00 | 87 | 1013.7 |
| 20260901022053 | 78 | 0 | 0.0 | 0.0 | 0.00 | 0.00 | 0.00 | 87 | 1013.7 |
| 20260901021628 | 78 | 0 | 0.0 | 0.0 | 0.00 | 0.00 | 0.00 | 87 | 1013.5 |
| 20260901021045 | 78 | 0 | 0.0 | 0.0 | 0.00 | 0.00 | 0.00 | 86 | 1013.5 |
| 20260901020547 | 78 | 0 | 0.0 | 2.0 | 0.00 | 0.00 | 0.00 | 86 | 1013.5 |
| 20260901020122 | 78 | 0 | 0.0 | 4.0 | 0.00 | 0.00 | 0.00 | 86 | 1013.5 |
| 20260901015547 | 79 | 0 | 1.0 | 4.0 | 0.00 | 0.00 | 0.00 | 87 | 1013.3 |
| 20260901015127 | 79 | 186 | 3.0 | 4.0 | 0.00 | 0.00 | 0.00 | 86 | 1013.3 |
| 20260901014607 | 79 | 186 | 2.0 | 4.0 | 0.00 | 0.00 | 0.00 | 86 | 1013.2 |
| 20260901014043 | 79 | 186 | 2.0 | 4.0 | 0.00 | 0.00 | 0.00 | 86 | 1013.1 |
| 20260901013549 | 79 | 186 | 1.0 | 4.0 | 0.00 | 0.00 | 0.00 | 86 | 1013.0 |
| 20260901013105 | 79 | 186 | 2.0 | 5.0 | 0.00 | 0.00 | 0.00 | 86 | 1013.0 |
| 20260901012542 | 79 | 186 | 3.0 | 5.0 | 0.00 | 0.00 | 0.00 | 86 | 1013.0 |
| 20260901012046 | 79 | 186 | 3.0 | 5.0 | 0.00 | 0.00 | 0.00 | 85 | 1012.9 |
| 20260901011601 | 79 | 186 | 3.0 | 5.0 | 0.00 | 0.00 | 0.00 | 85 | 1012.9 |
| 20260901011046 | 79 | 186 | 4.0 | 5.0 | 0.00 | 0.00 | 0.00 | 85 | 1013.0 |
| 20260901010545 | 80 | 188 | 3.0 | 5.0 | 0.00 | 0.00 | 0.00 | 85 | 1012.8 |
| 20260901010109 | 80 | 190 | 2.0 | 3.0 | 0.00 | 0.00 | 0.00 | 84 | 1012.8 |
| 20260901005546 | 80 | 189 | 0.0 | 5.0 | 0.00 | 0.00 | 0.00 | 84 | 1012.9 |
| 20260901005050 | 80 | 189 | 2.0 | 6.0 | 0.00 | 0.00 | 0.00 | 84 | 1012.8 |
| 20260901004611 | 80 | 188 | 4.0 | 6.0 | 0.00 | 0.00 | 0.00 | 84 | 1012.8 |
| 20260901004046 | 80 | 182 | 2.0 | 4.0 | 0.00 | 0.00 | 0.00 | 84 | 1012.6 |
| 20260901003545 | 80 | 0 | 0.0 | 0.0 | 0.00 | 0.00 | 0.00 | 82 | 1012.8 |
| 20260901003103 | 81 | 0 | 0.0 | 0.0 | 0.00 | 0.00 | 0.00 | 82 | 1012.9 |
| 20260901002543 | 81 | 0 | 0.0 | 2.0 | 0.00 | 0.00 | 0.00 | 82 | 1012.9 |
| 20260901002048 | 81 | 0 | 0.0 | 2.0 | 0.00 | 0.00 | 0.00 | 82 | 1012.7 |
| 20260901001600 | 81 | 0 | 0.0 | 1.0 | 0.00 | 0.00 | 0.00 | 81 | 1012.6 |
| 20260901001046 | 81 | 0 | 0.0 | 1.0 | 0.00 | 0.00 | 0.00 | 80 | 1012.6 |
| 20260901000546 | 81 | 0 | 0.0 | 1.0 | 0.00 | 0.00 | 0.00 | 80 | 1012.5 |
| 20260901000113 | 81 | 0 | 0.0 | 1.0 | 0.00 | 0.00 | 0.00 | 80 | 1012.6 |
| 20260831235543 | 81 | 0 | 0.0 | 0.0 | 0.00 | 0.00 | 0.00 | 80 | 1012.4 |
| 20260831235043 | 81 | 0 | 0.0 | 1.0 | 0.00 | 0.00 | 0.00 | 80 | 1012.5 |
| 20260831234606 | 81 | 0 | 0.0 | 3.0 | 0.00 | 0.00 | 0.00 | 80 | 1012.4 |
| 20260831234046 | 81 | 0 | 0.0 | 3.0 | 0.00 | 0.00 | 0.00 | 80 | 1012.3 |
| 20260831233544 | 81 | 188 | 1.0 | 3.0 | 0.00 | 0.00 | 0.00 | 80 | 1012.2 |
| 20260831233100 | 81 | 185 | 2.0 | 4.0 | 0.00 | 0.00 | 0.00 | 80 | 1012.2 |
| 20260831232547 | 82 | 199 | 2.0 | 4.0 | 0.00 | 0.00 | 0.00 | 79 | 1012.3 |
| 20260831232047 | 82 | 182 | 1.0 | 5.0 | 0.00 | 0.00 | 0.00 | 79 | 1012.4 |
| 20260831231558 | 82 | 196 | 2.0 | 5.0 | 0.00 | 0.00 | 0.00 | 79 | 1012.3 |
| 20260831231049 | 82 | 186 | 2.0 | 4.0 | 0.00 | 0.00 | 0.00 | 79 | 1012.2 |
| 20260831230547 | 82 | 186 | 2.0 | 4.0 | 0.00 | 0.00 | 0.00 | 78 | 1012.2 |
| 20260831230106 | 82 | 188 | 1.0 | 4.0 | 0.00 | 0.00 | 0.00 | 78 | 1012.4 |
| 20260831225545 | 82 | 187 | 1.0 | 5.0 | 0.00 | 0.00 | 0.00 | 78 | 1012.4 |
| 20260831225046 | 82 | 192 | 2.0 | 5.0 | 0.00 | 0.00 | 0.00 | 78 | 1012.3 |
| 20260831224601 | 82 | 174 | 2.0 | 7.0 | 0.00 | 0.00 | 0.00 | 78 | 1012.1 |
| 20260831224043 | 82 | 192 | 2.0 | 8.0 | 0.00 | 0.00 | 0.00 | 78 | 1012.1 |
| 20260831223544 | 82 | 185 | 3.0 | 8.0 | 0.00 | 0.00 | 0.00 | 77 | 1011.9 |
| 20260831223100 | 82 | 189 | 2.0 | 6.0 | 0.00 | 0.00 | 0.00 | 77 | 1012.0 |
| 20260831222544 | 82 | 196 | 3.0 | 7.0 | 0.00 | 0.00 | 0.00 | 77 | 1012.0 |
| 20260831222043 | 82 | 223 | 1.0 | 7.0 | 0.00 | 0.00 | 0.00 | 78 | 1012.0 |
| 20260831221606 | 82 | 194 | 1.0 | 6.0 | 0.00 | 0.00 | 0.00 | 78 | 1012.1 |
| 20260831221047 | 82 | 195 | 2.0 | 7.0 | 0.00 | 0.00 | 0.00 | 78 | 1012.2 |
| 20260831220543 | 82 | 200 | 2.0 | 7.0 | 0.00 | 0.00 | 0.00 | 79 | 1012.1 |
| 20260831220104 | 82 | 190 | 2.0 | 13.0 | 0.00 | 0.00 | 0.00 | 79 | 1012.1 |
| 20260831215544 | 81 | 184 | 3.0 | 13.0 | 0.00 | 0.00 | 0.00 | 79 | 1012.2 |
| 20260831215045 | 81 | 179 | 4.0 | 10.0 | 0.00 | 0.00 | 0.00 | 79 | 1012.1 |
| 20260831214601 | 81 | 179 | 4.0 | 10.0 | 0.00 | 0.00 | 0.00 | 80 | 1012.2 |
| 20260831214044 | 81 | 190 | 5.0 | 11.0 | 0.00 | 0.00 | 0.00 | 80 | 1012.3 |
| 20260831213543 | 82 | 194 | 5.0 | 11.0 | 0.00 | 0.00 | 0.00 | 79 | 1012.3 |
| 20260831213059 | 82 | 181 | 3.0 | 8.0 | 0.00 | 0.00 | 0.00 | 79 | 1012.3 |
| 20260831212543 | 82 | 184 | 2.0 | 6.0 | 0.00 | 0.00 | 0.00 | 78 | 1012.4 |
| 20260831212043 | 82 | 182 | 2.0 | 5.0 | 0.00 | 0.00 | 0.00 | 79 | 1012.5 |
| 20260831211603 | 81 | 180 | 1.0 | 4.0 | 0.00 | 0.00 | 0.00 | 79 | 1012.6 |
| 20260831211042 | 81 | 0 | 1.0 | 3.0 | 0.00 | 0.00 | 0.00 | 80 | 1012.4 |
| 20260831210542 | 81 | 193 | 1.0 | 2.0 | 0.00 | 0.00 | 0.00 | 79 | 1012.3 |
| 20260831210104 | 81 | 192 | 0.0 | 1.0 | 0.00 | 0.00 | 0.00 | 79 | 1012.0 |
| 20260831205542 | 81 | 0 | 0.0 | 0.0 | 0.00 | 0.00 | 0.00 | 78 | 1011.8 |
| 20260831205043 | 81 | 0 | 0.0 | 0.0 | 0.00 | 0.00 | 0.00 | 77 | 1011.5 |
| 20260831204558 | 81 | 0 | 0.0 | 0.0 | 0.00 | 0.00 | 0.00 | 77 | 1011.5 |
| 20260831204043 | 81 | 0 | 0.0 | 1.0 | 0.00 | 0.00 | 0.00 | 77 | 1011.3 |
| 20260831203542 | 81 | 0 | 0.0 | 4.0 | 0.00 | 0.00 | 0.00 | 77 | 1011.3 |
| 20260831203111 | 81 | 192 | 0.0 | 4.0 | 0.00 | 0.00 | 0.00 | 77 | 1011.3 |
| 20260831202544 | 81 | 192 | 2.0 | 4.0 | 0.00 | 0.00 | 0.00 | 76 | 1011.6 |
| 20260831202047 | 82 | 180 | 1.0 | 4.0 | 0.00 | 0.00 | 0.00 | 75 | 1011.8 |
| 20260831201600 | 82 | 0 | 1.0 | 4.0 | 0.00 | 0.00 | 0.00 | 75 | 1011.9 |
| 20260831201044 | 82 | 175 | 0.0 | 4.0 | 0.00 | 0.00 | 0.00 | 75 | 1012.1 |
| 20260831200543 | 82 | 185 | 0.0 | 5.0 | 0.00 | 0.00 | 0.00 | 74 | 1012.3 |
| 20260831200059 | 82 | 0 | 1.0 | 5.0 | 0.00 | 0.00 | 0.00 | 74 | 1012.1 |
| 20260831195544 | 83 | 209 | 2.0 | 5.0 | 0.00 | 0.00 | 0.00 | 73 | 1011.9 |
| 20260831195045 | 83 | 192 | 2.0 | 5.0 | 0.00 | 0.00 | 0.00 | 72 | 1011.9 |
| 20260831194635 | 83 | 195 | 2.0 | 4.0 | 0.00 | 0.00 | 0.00 | 71 | 1012.0 |
| 20260831194048 | 84 | 182 | 2.0 | 5.0 | 0.00 | 0.00 | 0.00 | 70 | 1011.9 |
| 20260831193544 | 84 | 180 | 2.0 | 6.0 | 0.00 | 0.00 | 0.00 | 69 | 1012.0 |
| 20260831193100 | 84 | 196 | 2.0 | 6.0 | 0.00 | 0.00 | 0.00 | 69 | 1012.0 |
| 20260831192545 | 85 | 173 | 3.0 | 6.0 | 0.00 | 0.00 | 0.00 | 68 | 1012.0 |
| 20260831192045 | 85 | 175 | 3.0 | 6.0 | 0.00 | 0.00 | 0.00 | 68 | 1012.1 |
| 20260831191559 | 85 | 194 | 2.0 | 6.0 | 0.00 | 0.00 | 0.00 | 67 | 1012.1 |
| 20260831191047 | 86 | 201 | 3.0 | 7.0 | 0.00 | 0.00 | 0.00 | 65 | 1012.1 |
| 20260831190545 | 86 | 184 | 3.0 | 7.0 | 0.00 | 0.00 | 0.00 | 66 | 1012.1 |
| 20260831190114 | 86 | 171 | 4.0 | 8.0 | 0.00 | 0.00 | 0.00 | 68 | 1012.0 |
| 20260831185547 | 86 | 173 | 4.0 | 8.0 | 0.00 | 0.00 | 0.00 | 67 | 1012.1 |
| 20260831185045 | 85 | 194 | 3.0 | 8.0 | 0.00 | 0.00 | 0.00 | 67 | 1012.0 |
| 20260831184609 | 85 | 185 | 3.0 | 9.0 | 0.00 | 0.00 | 0.00 | 69 | 1012.1 |
| 20260831184044 | 84 | 167 | 4.0 | 9.0 | 0.00 | 0.00 | 0.00 | 71 | 1012.2 |
| 20260831183546 | 84 | 185 | 4.0 | 7.0 | 0.00 | 0.00 | 0.00 | 72 | 1012.2 |
| 20260831183107 | 83 | 196 | 4.0 | 7.0 | 0.00 | 0.00 | 0.00 | 73 | 1012.2 |
| 20260831182546 | 83 | 192 | 4.0 | 7.0 | 0.00 | 0.00 | 0.00 | 73 | 1012.2 |
| 20260831182049 | 82 | 185 | 2.0 | 7.0 | 0.00 | 0.00 | 0.00 | 72 | 1012.3 |
| 20260831181603 | 82 | 180 | 4.0 | 7.0 | 0.00 | 0.00 | 0.00 | 73 | 1012.3 |
| 20260831181045 | 82 | 192 | 4.0 | 8.0 | 0.00 | 0.00 | 0.00 | 74 | 1012.4 |
| 20260831180545 | 82 | 168 | 4.0 | 8.0 | 0.00 | 0.00 | 0.00 | 74 | 1012.3 |
| 20260831180100 | 82 | 178 | 3.0 | 8.0 | 0.00 | 0.00 | 0.00 | 75 | 1012.3 |
| 20260831175547 | 81 | 183 | 3.0 | 9.0 | 0.00 | 0.00 | 0.00 | 75 | 1012.4 |
| 20260831175046 | 81 | 188 | 5.0 | 9.0 | 0.00 | 0.00 | 0.00 | 75 | 1012.4 |
| 20260831174602 | 81 | 187 | 4.0 | 11.0 | 0.00 | 0.00 | 0.00 | 75 | 1012.4 |
| 20260831174046 | 81 | 201 | 4.0 | 11.0 | 0.00 | 0.00 | 0.00 | 74 | 1012.5 |
| 20260831173546 | 81 | 190 | 6.0 | 10.0 | 0.00 | 0.00 | 0.00 | 73 | 1012.5 |
| 20260831173101 | 81 | 192 | 4.0 | 12.0 | 0.00 | 0.00 | 0.00 | 73 | 1012.7 |
| 20260831172545 | 81 | 187 | 4.0 | 12.0 | 0.00 | 0.00 | 0.00 | 75 | 1012.7 |
| 20260831172045 | 80 | 192 | 7.0 | 12.0 | 0.00 | 0.00 | 0.00 | 74 | 1012.7 |
| 20260831171606 | 80 | 234 | 7.0 | 12.0 | 0.00 | 0.00 | 0.00 | 73 | 1012.6 |
| 20260831171045 | 80 | 183 | 4.0 | 13.0 | 0.00 | 0.00 | 0.00 | 74 | 1012.7 |
| 20260831170545 | 80 | 184 | 8.0 | 14.0 | 0.00 | 0.00 | 0.00 | 73 | 1012.9 |
| 20260831170107 | 80 | 181 | 7.0 | 14.0 | 0.00 | 0.00 | 0.00 | 74 | 1012.8 |
| 20260831165544 | 80 | 181 | 7.0 | 13.0 | 0.00 | 0.00 | 0.00 | 74 | 1012.9 |
| 20260831165045 | 80 | 182 | 6.0 | 14.0 | 0.00 | 0.00 | 0.00 | 74 | 1012.8 |
| 20260831164609 | 79 | 192 | 5.0 | 15.0 | 0.00 | 0.00 | 0.00 | 75 | 1012.8 |
| 20260831164045 | 79 | 190 | 8.0 | 15.0 | 0.00 | 0.00 | 0.00 | 77 | 1012.8 |
| 20260831163545 | 79 | 180 | 8.0 | 13.0 | 0.00 | 0.00 | 0.00 | 77 | 1012.9 |
| 20260831163102 | 79 | 182 | 6.0 | 13.0 | 0.00 | 0.00 | 0.00 | 78 | 1012.9 |
| 20260831162546 | 79 | 187 | 7.0 | 13.0 | 0.00 | 0.00 | 0.00 | 77 | 1013.0 |
| 20260831162046 | 78 | 184 | 6.0 | 12.0 | 0.00 | 0.00 | 0.00 | 77 | 1013.1 |
| 20260831161601 | 78 | 178 | 6.0 | 14.0 | 0.00 | 0.00 | 0.00 | 78 | 1013.1 |
| 20260831161045 | 78 | 189 | 7.0 | 14.0 | 0.00 | 0.00 | 0.00 | 79 | 1013.1 |
| 20260831160547 | 78 | 186 | 8.0 | 13.0 | 0.00 | 0.00 | 0.00 | 79 | 1013.0 |
| 20260831160110 | 77 | 194 | 7.0 | 13.0 | 0.00 | 0.00 | 0.00 | 78 | 1013.1 |
| 20260831155546 | 77 | 188 | 6.0 | 15.0 | 0.00 | 0.00 | 0.00 | 79 | 1012.9 |
| 20260831155049 | 77 | 182 | 7.0 | 16.0 | 0.00 | 0.00 | 0.00 | 80 | 1013.1 |
| 20260831154706 | 77 | 186 | 9.0 | 16.0 | 0.00 | 0.00 | 0.00 | 80 | 1013.0 |
| 20260831154045 | 76 | 201 | 10.0 | 14.0 | 0.00 | 0.00 | 0.00 | 80 | 1013.0 |
| 20260831153549 | 76 | 184 | 9.0 | 13.0 | 0.00 | 0.00 | 0.00 | 81 | 1013.1 |
| 20260831153100 | 76 | 189 | 6.0 | 12.0 | 0.00 | 0.00 | 0.00 | 81 | 1013.2 |
| 20260831152545 | 76 | 184 | 6.0 | 15.0 | 0.00 | 0.00 | 0.00 | 81 | 1013.3 |
| 20260831152046 | 75 | 186 | 6.0 | 15.0 | 0.00 | 0.00 | 0.00 | 81 | 1013.2 |
| 20260831151603 | 75 | 179 | 6.0 | 12.0 | 0.00 | 0.00 | 0.00 | 81 | 1013.1 |
| 20260831151047 | 75 | 182 | 7.0 | 12.0 | 0.00 | 0.00 | 0.00 | 81 | 1013.1 |
| 20260831150549 | 75 | 182 | 7.0 | 13.0 | 0.00 | 0.00 | 0.00 | 81 | 1013.2 |
| 20260831145546 | 75 | 196 | 8.0 | 12.0 | 0.00 | 0.00 | 0.00 | 81 | 1013.3 |
| 20260831145045 | 75 | 190 | 7.0 | 12.0 | 0.00 | 0.00 | 0.00 | 81 | 1013.2 |
| 20260831144558 | 75 | 178 | 7.0 | 12.0 | 0.00 | 0.00 | 0.00 | 82 | 1013.1 |
| 20260831144045 | 75 | 191 | 5.0 | 12.0 | 0.00 | 0.00 | 0.00 | 82 | 1013.2 |
| 20260831143545 | 74 | 186 | 5.0 | 12.0 | 0.00 | 0.00 | 0.00 | 82 | 1013.3 |
| 20260831143114 | 74 | 195 | 6.0 | 10.0 | 0.00 | 0.00 | 0.00 | 82 | 1013.3 |
| 20260831142546 | 74 | 188 | 5.0 | 11.0 | 0.00 | 0.00 | 0.00 | 82 | 1013.3 |
| 20260831142045 | 74 | 192 | 7.0 | 11.0 | 0.00 | 0.00 | 0.00 | 82 | 1013.3 |
| 20260831141615 | 74 | 202 | 7.0 | 11.0 | 0.00 | 0.00 | 0.00 | 82 | 1013.2 |
| 20260831141044 | 74 | 189 | 6.0 | 11.0 | 0.00 | 0.00 | 0.00 | 82 | 1013.1 |
| 20260831140545 | 74 | 209 | 6.0 | 11.0 | 0.00 | 0.00 | 0.00 | 82 | 1013.3 |
| 20260831140058 | 74 | 181 | 6.0 | 10.0 | 0.00 | 0.00 | 0.00 | 82 | 1013.1 |
| 20260831135545 | 74 | 190 | 5.0 | 11.0 | 0.00 | 0.01 | 0.00 | 83 | 1013.2 |
| 20260831135045 | 73 | 199 | 5.0 | 12.0 | 0.00 | 0.01 | 0.00 | 83 | 1013.1 |
| 20260831134609 | 73 | 188 | 5.0 | 12.0 | 0.00 | 0.01 | 0.00 | 83 | 1013.2 |
| 20260831134044 | 73 | 179 | 7.0 | 12.0 | 0.00 | 0.01 | 0.00 | 83 | 1013.1 |
| 20260831133545 | 73 | 193 | 4.0 | 10.0 | 0.00 | 0.01 | 0.00 | 84 | 1013.1 |
| 20260831133104 | 73 | 186 | 6.0 | 10.0 | 0.00 | 0.01 | 0.00 | 84 | 1013.1 |
| 20260831132547 | 73 | 185 | 6.0 | 11.0 | 0.00 | 0.01 | 0.00 | 84 | 1013.0 |
| 20260831132045 | 72 | 182 | 7.0 | 11.0 | 0.00 | 0.01 | 0.00 | 85 | 1012.9 |
| 20260831131612 | 72 | 195 | 7.0 | 11.0 | 0.00 | 0.01 | 0.00 | 86 | 1013.0 |
| 20260831131044 | 72 | 198 | 7.0 | 10.0 | 0.00 | 0.01 | 0.00 | 86 | 1012.8 |
| 20260831130544 | 72 | 202 | 7.0 | 13.0 | 0.00 | 0.01 | 0.00 | 87 | 1012.9 |
| 20260831130101 | 72 | 194 | 7.0 | 13.0 | 0.00 | 0.01 | 0.00 | 88 | 1012.8 |
| 20260831125545 | 71 | 194 | 7.0 | 10.0 | 0.00 | 0.01 | 0.00 | 87 | 1013.0 |
| 20260831125045 | 71 | 198 | 6.0 | 11.0 | 0.00 | 0.01 | 0.00 | 88 | 1013.0 |
| 20260831124611 | 71 | 182 | 7.0 | 11.0 | 0.00 | 0.01 | 0.00 | 88 | 1013.1 |
| 20260831124044 | 71 | 190 | 7.0 | 11.0 | 0.00 | 0.01 | 0.00 | 89 | 1013.1 |
| 20260831123544 | 71 | 207 | 7.0 | 10.0 | 0.00 | 0.01 | 0.00 | 90 | 1013.2 |
| 20260831123101 | 71 | 178 | 6.0 | 10.0 | 0.00 | 0.01 | 0.00 | 90 | 1013.2 |
| 20260831122546 | 71 | 196 | 6.0 | 10.0 | 0.00 | 0.01 | 0.00 | 91 | 1013.1 |
| 20260831122045 | 70 | 192 | 6.0 | 9.0 | 0.00 | 0.01 | 0.00 | 91 | 1013.1 |
| 20260831121605 | 70 | 180 | 5.0 | 9.0 | 0.00 | 0.01 | 0.00 | 92 | 1013.1 |
| 20260831121045 | 70 | 195 | 5.0 | 9.0 | 0.00 | 0.01 | 0.00 | 92 | 1013.1 |
| 20260831120545 | 70 | 188 | 5.0 | 8.0 | 0.00 | 0.01 | 0.00 | 92 | 1013.1 |
| 20260831120106 | 70 | 198 | 4.0 | 9.0 | 0.00 | 0.01 | 0.00 | 92 | 1013.1 |
| 20260831115545 | 70 | 189 | 5.0 | 9.0 | 0.00 | 0.01 | 0.00 | 93 | 1013.1 |
| 20260831115044 | 70 | 190 | 5.0 | 9.0 | 0.00 | 0.01 | 0.00 | 93 | 1013.1 |
| 20260831114600 | 70 | 205 | 5.0 | 9.0 | 0.00 | 0.01 | 0.00 | 93 | 1013.2 |
| 20260831114047 | 70 | 196 | 5.0 | 8.0 | 0.00 | 0.01 | 0.00 | 93 | 1013.3 |
| 20260831113545 | 70 | 187 | 5.0 | 8.0 | 0.00 | 0.01 | 0.00 | 94 | 1013.3 |
| 20260831113118 | 70 | 185 | 5.0 | 8.0 | 0.00 | 0.01 | 0.00 | 94 | 1013.2 |
| 20260831112545 | 70 | 180 | 5.0 | 8.0 | 0.00 | 0.01 | 0.00 | 94 | 1013.1 |
| 20260831112044 | 70 | 0 | 0.0 | 0.0 | 0.00 | 0.01 | 0.00 | 94 | 1013.1 |
| 20260831111602 | 70 | 0 | 0.0 | 0.0 | 0.00 | 0.01 | 0.00 | 94 | 1013.3 |
| 20260831111044 | 70 | 0 | 0.0 | 0.0 | 0.00 | 0.01 | 0.00 | 94 | 1013.3 |
| 20260831110544 | 70 | 0 | 0.0 | 0.0 | 0.00 | 0.01 | 0.00 | 94 | 1013.3 |
| 20260831110101 | 70 | 0 | 0.0 | 0.0 | 0.00 | 0.01 | 0.00 | 94 | 1013.4 |
| 20260831105545 | 70 | 0 | 0.0 | 0.0 | 0.00 | 0.01 | 0.00 | 94 | 1013.5 |
| 20260831105045 | 70 | 0 | 0.0 | 0.0 | 0.00 | 0.01 | 0.00 | 94 | 1013.7 |
| 20260831104604 | 70 | 0 | 0.0 | 0.0 | 0.00 | 0.01 | 0.00 | 94 | 1013.7 |
| 20260831104044 | 70 | 0 | 0.0 | 0.0 | 0.00 | 0.01 | 0.00 | 94 | 1013.7 |
| 20260831103544 | 70 | 0 | 0.0 | 0.0 | 0.00 | 0.01 | 0.00 | 94 | 1013.9 |
| 20260831103101 | 70 | 0 | 0.0 | 0.0 | 0.00 | 0.01 | 0.00 | 94 | 1013.6 |
| 20260831102547 | 70 | 0 | 0.0 | 0.0 | 0.00 | 0.01 | 0.00 | 94 | 1013.9 |
| 20260831102044 | 70 | 0 | 0.0 | 0.0 | 0.00 | 0.01 | 0.00 | 94 | 1013.8 |
| 20260831101615 | 70 | 0 | 0.0 | 0.0 | 0.00 | 0.01 | 0.00 | 94 | 1013.7 |
| 20260831101044 | 70 | 0 | 0.0 | 0.0 | 0.00 | 0.01 | 0.00 | 93 | 1013.6 |
| 20260831100543 | 70 | 0 | 0.0 | 0.0 | 0.00 | 0.01 | 0.00 | 93 | 1013.4 |
| 20260831100111 | 70 | 0 | 0.0 | 0.0 | 0.00 | 0.01 | 0.00 | 93 | 1013.6 |
| 20260831095545 | 69 | 0 | 0.0 | 0.0 | 0.00 | 0.01 | 0.00 | 93 | 1013.6 |
| 20260831095044 | 69 | 0 | 0.0 | 0.0 | 0.00 | 0.01 | 0.00 | 93 | 1013.7 |
| 20260831094601 | 69 | 0 | 0.0 | 0.0 | 0.00 | 0.01 | 0.00 | 93 | 1013.4 |
| 20260831094045 | 69 | 0 | 0.0 | 0.0 | 0.00 | 0.01 | 0.00 | 93 | 1013.3 |
| 20260831093547 | 69 | 0 | 0.0 | 0.0 | 0.00 | 0.01 | 0.00 | 92 | 1013.1 |
| 20260831093102 | 69 | 0 | 0.0 | 0.0 | 0.00 | 0.01 | 0.00 | 92 | 1013.1 |
| 20260831092544 | 69 | 0 | 0.0 | 0.0 | 0.00 | 0.01 | 0.00 | 92 | 1013.1 |
| 20260831092046 | 69 | 0 | 0.0 | 0.0 | 0.00 | 0.01 | 0.00 | 92 | 1013.0 |
| 20260831091602 | 69 | 0 | 0.0 | 0.0 | 0.00 | 0.01 | 0.00 | 92 | 1013.1 |
| 20260831091045 | 69 | 0 | 0.0 | 0.0 | 0.00 | 0.01 | 0.00 | 92 | 1013.2 |
| 20260831090544 | 69 | 0 | 0.0 | 0.0 | 0.00 | 0.01 | 0.00 | 92 | 1013.3 |
| 20260831090109 | 70 | 0 | 0.0 | 0.0 | 0.00 | 0.01 | 0.00 | 92 | 1013.3 |
| 20260831085545 | 70 | 0 | 0.0 | 0.0 | 0.00 | 0.01 | 0.00 | 92 | 1013.3 |
| 20260831085044 | 70 | 0 | 0.0 | 0.0 | 0.00 | 0.01 | 0.00 | 92 | 1013.3 |
| 20260831084600 | 70 | 0 | 0.0 | 0.0 | 0.00 | 0.01 | 0.00 | 92 | 1013.4 |
| 20260831084044 | 70 | 0 | 0.0 | 0.0 | 0.00 | 0.01 | 0.00 | 92 | 1013.4 |
| 20260831083543 | 70 | 0 | 0.0 | 0.0 | 0.00 | 0.01 | 0.00 | 92 | 1013.3 |
| 20260831083110 | 70 | 0 | 0.0 | 0.0 | 0.00 | 0.01 | 0.00 | 92 | 1013.4 |
| 20260831082544 | 70 | 0 | 0.0 | 0.0 | 0.00 | 0.01 | 0.00 | 92 | 1013.3 |
| 20260831082044 | 70 | 0 | 0.0 | 0.0 | 0.00 | 0.01 | 0.00 | 92 | 1013.3 |
| 20260831081601 | 70 | 0 | 0.0 | 0.0 | 0.00 | 0.01 | 0.00 | 92 | 1013.3 |
| 20260831081042 | 70 | 0 | 0.0 | 0.0 | 0.00 | 0.01 | 0.00 | 92 | 1013.4 |
| 20260831080544 | 70 | 0 | 0.0 | 0.0 | 0.00 | 0.01 | 0.00 | 92 | 1013.4 |
| 20260831080110 | 70 | 0 | 0.0 | 0.0 | 0.00 | 0.01 | 0.00 | 92 | 1013.4 |
| 20260831075541 | 70 | 0 | 0.0 | 0.0 | 0.00 | 0.01 | 0.00 | 92 | 1013.5 |
| 20260831075047 | 70 | 0 | 0.0 | 0.0 | 0.00 | 0.01 | 0.00 | 92 | 1013.5 |
| 20260831074602 | 70 | 0 | 0.0 | 0.0 | 0.00 | 0.01 | 0.00 | 92 | 1013.6 |
| 20260831074044 | 70 | 0 | 0.0 | 0.0 | 0.00 | 0.01 | 0.00 | 92 | 1013.7 |
| 20260831073543 | 70 | 0 | 0.0 | 0.0 | 0.00 | 0.01 | 0.00 | 91 | 1013.7 |
| 20260831073102 | 70 | 0 | 0.0 | 0.0 | 0.00 | 0.01 | 0.00 | 91 | 1013.7 |
| 20260831072544 | 70 | 0 | 0.0 | 0.0 | 0.00 | 0.01 | 0.00 | 91 | 1013.8 |
| 20260831072043 | 70 | 0 | 0.0 | 0.0 | 0.00 | 0.01 | 0.00 | 91 | 1014.0 |
| 20260831071603 | 70 | 0 | 0.0 | 0.0 | 0.00 | 0.01 | 0.00 | 91 | 1014.1 |
| 20260831071043 | 70 | 0 | 0.0 | 0.0 | 0.00 | 0.01 | 0.00 | 91 | 1014.1 |
| 20260831070544 | 70 | 0 | 0.0 | 0.0 | 0.00 | 0.01 | 0.00 | 91 | 1014.2 |